Location: Kott?ru
(16.6209°N, 80.6208°E)
Time: 14:43:45
(UTC+00:00)

Meteor 1-19 Rocket - Pass Details

Date: 18 September 2020
Orbit: 810 x 925 km, 81.2° (Epoch: 30 October)

Event Time Altitude Azimuth Distance (km) Brightness Sun altitude
Rises 23:45:33 0° 180° (S) 3,318 7.2 -10.6°
Reaches altitude 10° 23:47:56 10° 178° (S) 2,387 6.5 -10.0°
Maximum altitude 23:53:17 72° 95° (E) 853 4.5 -8.7°
Drops below altitude 10° 23:58:41 10° 11° (NNE) 2,414 6.8 -7.4°
Sets 00:01:07 0° 10° (N) 3,359 7.5 -6.8°
